EW2835 Weather Reports


Display with metric or nautical units.
time (UTC)temp
F
wind
direction
speed
MPH
gust
MPH
rain 1hr
in
rain 24hr
in
rain mn
in
humidity
%
barometer
mb
20260505054502 57 46 1.0 4.0 0.01 0.01 0.01 88 1009.8
20260505053107 57 54 1.0 4.0 0.01 0.01 0.01 88 1009.8
20260505051556 57 50 0.0 4.0 0.01 0.01 0.01 87 1009.7
20260505041545 56 30 0.0 2.0 0.00 0.00 0.00 86 1009.9
20260505040043 57 30 0.0 3.0 0.00 0.00 0.00 85 1009.9
20260505034541 57 50 0.0 2.0 0.00 0.00 0.00 84 1010.0
20260505033102 57 63 0.0 3.0 0.00 0.00 0.00 84 1009.9
20260505031540 57 304 0.0 1.0 0.00 0.00 0.00 83 1010.0
20260505030037 57 304 0.0 0.0 0.00 0.00 0.00 83 1010.1
20260505024536 57 304 0.0 1.0 0.00 0.00 0.00 82 1010.2
20260505023037 57 304 0.0 2.0 0.00 0.00 0.00 82 1010.3
20260505021532 58 304 0.0 2.0 0.00 0.00 0.00 81 1010.5
20260505020031 58 252 0.0 1.0 0.00 0.00 0.00 81 1010.7
20260505014533 58 275 1.0 4.0 0.00 0.00 0.00 80 1010.7
20260505013029 58 81 3.0 6.0 0.00 0.00 0.00 80 1010.4
20260505011530 58 47 3.0 8.0 0.00 0.00 0.00 80 1010.4
20260505010027 58 66 0.0 5.0 0.00 0.00 0.00 80 1010.5
20260505004538 58 66 1.0 4.0 0.00 0.00 0.00 80 1010.7
20260505003023 58 62 1.0 5.0 0.00 0.00 0.00 80 1010.8
20260505001522 58 70 2.0 5.0 0.00 0.00 0.00 80 1010.9
20260505000024 58 36 0.0 3.0 0.00 0.00 0.00 80 1011.0
20260504234528 58 69 1.0 4.0 0.00 0.00 0.00 79 1011.2
20260504233019 59 76 1.0 4.0 0.00 0.00 0.00 79 1011.2
20260504231532 59 71 1.0 5.0 0.00 0.00 0.00 78 1011.4
20260504230016 59 42 2.0 8.0 0.00 0.00 0.00 79 1011.4
20260504224516 59 76 2.0 4.0 0.00 0.00 0.00 79 1011.5
20260504223013 59 19 1.0 4.0 0.00 0.00 0.00 79 1011.5
20260504221511 58 51 1.0 7.0 0.00 0.00 0.00 80 1011.5
20260504220009 58 39 0.0 1.0 0.00 0.00 0.00 80 1011.6
20260504214515 58 61 0.0 4.0 0.00 0.00 0.00 81 1011.5
20260504213008 58 13 0.0 2.0 0.00 0.00 0.00 81 1011.7
20260504211507 58 332 0.0 0.0 0.00 0.00 0.00 80 1011.7
20260504210010 59 332 0.0 0.0 0.00 0.00 0.00 80 1011.7
20260504204506 59 332 0.0 0.0 0.00 0.00 0.00 79 1011.7
20260504203005 60 332 0.0 0.0 0.00 0.00 0.00 78 1011.8
20260504201504 60 332 0.0 0.0 0.00 0.00 0.00 78 1011.7
20260504200009 61 332 0.0 0.0 0.00 0.00 0.00 77 1011.6
20260504194509 61 332 0.0 0.0 0.00 0.00 0.00 75 1011.6
20260504193009 62 332 0.0 0.0 0.00 0.00 0.00 73 1011.5
20260504191502 63 332 0.0 1.0 0.00 0.00 0.00 71 1011.5
20260504190005 64 332 0.0 0.0 0.00 0.00 0.00 69 1011.4
20260504184502 66 332 0.0 0.0 0.00 0.00 0.00 65 1011.4
20260504183001 67 332 0.0 3.0 0.00 0.00 0.00 63 1011.3
20260504181600 67 307 1.0 3.0 0.00 0.00 0.00 61 1011.3
20260504180058 68 332 0.0 3.0 0.00 0.00 0.00 60 1011.2
20260504174600 69 300 1.0 4.0 0.00 0.00 0.00 58 1011.2
20260504173057 69 300 0.0 3.0 0.00 0.00 0.00 58 1011.2
20260504171554 69 325 2.0 4.0 0.00 0.00 0.00 57 1011.1
20260504081540 69 14 1.0 8.0 0.00 0.00 0.00 62 1012.7